Flag for USA

Past Weather in Milan Historic District, Ohio, USA — Yesterday and Last 2 Weeks

Currently: 40 °F. Overcast. (Weather station: Lorain County Regional Airport, USA). See more current weather

Past Weather in Milan Historic District — Graph

°F

Milan Historic District Temperature Yesterday

Maximum temperature yesterday: 47 °F (at 12:19 am)
Minimum temperature yesterday: 42 °F (at 6:25 pm)
Average temperature yesterday: 45 °F

High & Low Weather Summary for the Past Weeks

 TemperatureHumidityPressure
High60 °F (Nov 24, 2:53 pm)100% (Dec 6, 8:04 pm)30.52 "Hg (Dec 6, 8:04 pm)
Low21 °F (Dec 4, 5:53 am)27% (Dec 5, 12:53 pm)29.32 "Hg (Nov 27, 1:53 pm)
Average42 °F75%30.06 "Hg
* Reported Nov 23 5:53 pm — Dec 8 5:53 pm, Milan Historic District. Weather by CustomWeather, © 2022

Note: Actual official high and low records may vary slightly from our data, if they occured in-between our weather recording intervals... More about our weather records

Milan Historic District Weather History for the Previous 24 Hours

Scroll right to see more
 ConditionsComfort  
Time TempWeatherWind HumidityBarometerVisibility
5:53 pm
Thu, Dec 8
40 °FOvercast.7 mph83%30.35 "Hg10 mi
4:53 pm40 °FOvercast.7 mph83%30.34 "Hg10 mi
4:22 pm41 °FOvercast.7 mph82%30.33 "Hg10 mi
3:53 pm41 °FOvercast.9 mph86%30.34 "Hg10 mi
2:53 pm41 °FOvercast.9 mph86%30.34 "Hg10 mi
1:53 pm41 °FOvercast.8 mph86%30.34 "Hg10 mi
12:53 pm41 °FOvercast.9 mph86%30.34 "Hg10 mi
11:53 am41 °FFog.8 mph86%30.37 "Hg6 mi
10:53 am41 °FFog.6 mph89%30.40 "Hg6 mi
9:53 am41 °FOvercast.7 mph86%30.39 "Hg7 mi
8:53 am41 °FOvercast.8 mph89%30.39 "Hg7 mi
8:17 am41 °FFog.8 mph93%30.35 "Hg4 mi
8:06 am41 °FFog.9 mph93%30.34 "Hg2 mi
7:25 am40 °FFog.7 mph93%30.35 "Hg5 mi
6:53 am39 °FFog.5 mph100%30.37 "Hg4 mi
6:14 am40 °FFog.3 mph97%30.34 "Hg4 mi
6:00 am40 °FFog.No wind97%30.34 "Hg3 mi
5:08 am40 °FFog.3 mph97%30.35 "Hg2 mi
4:42 am40 °FFog.3 mph97%30.34 "Hg1 mi
4:29 am40 °FFog.No wind97%30.35 "Hg1 mi
3:53 am40 °FFog.No wind97%30.35 "Hg0 mi
3:37 am40 °FFog.No wind97%30.34 "Hg0 mi
2:53 am41 °FFog.3 mph96%30.35 "Hg0 mi
1:53 am41 °FFog.No wind100%30.35 "Hg0 mi
12:53 am41 °FFog.No wind100%30.35 "Hg0 mi
11:53 pm
Wed, Dec 7
42 °FFog.3 mph96%30.35 "Hg0 mi
10:53 pm42 °FFog.6 mph96%30.34 "Hg0 mi
10:41 pm42 °FFog.5 mph100%30.33 "Hg0 mi
10:34 pm43 °FFog.3 mph97%30.33 "Hg1 mi
10:03 pm43 °FFog.5 mph100%30.33 "Hg1 mi
8:53 pm43 °FFog.3 mph97%30.33 "Hg0 mi
7:53 pm43 °FFog.6 mph97%30.32 "Hg0 mi
Weather by CustomWeather, © 2022

See weather overview